Temperature
-4 -5 -5 -5 -6 -6 -6 -6 -6 -6 -6 -6 -5 -5 -4 -3 -2 -2 -1 1 2 3 4 4 5 6 7 9 9 10 11 12 13 14 15 15 15 16 16 16 16 16 16
-6 -6 -7 -7 -7 -8 -8 -8 -8 -8 -8 -7 -7 -6 -5 -4 -4 -3 -2 -1 1 2 3 3 4 4 6 7 8 9 11 12 13 14 14 15 15 15 16 16 16 16 16
-6 -7 -8 -8 -9 -9 -9 -9 -9 -9 -9 -9 -8 -8 -7 -6 -5 -4 -3 -3 -1 0 1 2 3 3 4 5 7 8 10 11 12 13 14 14 15 15 15 16 16 16 16
-7 -8 -9 -9 -10 -10 -10 -10 -10 -10 -10 -10 -10 -9 -8 -7 -6 -5 -4 -3 -2 -1 -1 0 1 1 2 4 5 7 8 10 11 12 13 14 15 15 15 15 16 16 16
-8 -9 -10 -10 -11 -11 -11 -11 -11 -11 -11 -11 -10 -10 -9 -8 -7 -5 -4 -4 -3 -3 -2 -2 -1 0 2 3 5 6 8 9 10 11 12 13 14 15 15 15 15 16 16
-9 -10 -11 -11 -11 -11 -11 -11 -11 -11 -11 -11 -11 -11 -10 -9 -7 -6 -5 -4 -4 -4 -3 -3 -3 -1 0 2 4 6 7 8 9 11 12 13 14 14 15 15 15 15 16
-10 -11 -11 -11 -11 -12 -12 -12 -12 -12 -12 -12 -12 -11 -10 -8 -7 -6 -6 -5 -4 -4 -4 -4 -3 -2 -1 0 2 4 6 8 9 10 11 12 13 14 15 15 15 15 15
-10 -11 -11 -11 -12 -12 -12 -12 -12 -12 -12 -12 -12 -12 -11 -9 -6 -7 -6 -5 -5 -5 -5 -4 -4 -3 -2 -1 1 3 5 7 8 9 10 12 13 13 14 15 15 15 15
-10 -11 -11 -11 -12 -12 -12 -12 -12 -13 -13 -13 -13 -12 -12 -10 -11 -9 -7 -6 -6 -6 -5 -5 -4 -3 -2 -1 0 2 4 6 7 9 10 11 12 13 14 14 15 15 15
-10 -11 -11 -11 -12 -12 -12 -12 -13 -13 -13 -13 -13 -13 -12 -12 -12 -10 -8 -7 -7 -6 -6 -5 -4 -4 -3 -2 -0 1 3 4 6 8 9 10 11 13 13 14 14 15 15
-10 -11 -11 -11 -12 -12 -12 -12 -12 -13 -13 -13 -13 -13 -13 -12 -12 -11 -10 -8 -7 -7 -6 -5 -5 -4 -3 -2 -1 0 2 3 5 7 9 10 11 12 13 14 14 14 15
-10 -10 -11 -11 -11 -11 -11 -12 -12 -12 -12 -12 -13 -13 -12 -12 -12 -11 -10 -9 -8 -7 -6 -6 -5 -4 -3 -3 -2 -0 1 3 4 6 8 9 10 11 12 13 14 14 14
-10 -10 -10 -10 -10 -11 -11 -11 -11 -11 -12 -12 -12 -12 -12 -12 -12 -11 -11 -10 -9 -7 -6 -5 -5 -4 -4 -3 -2 -1 1 2 4 5 7 9 10 11 12 13 13 14 14
-11 -10 -10 -10 -10 -10 -10 -11 -11 -11 -11 -11 -11 -11 -11 -11 -11 -10 -10 -10 -9 -7 -6 -5 -5 -4 -4 -4 -3 -1 0 1 3 5 6 8 9 10 11 12 13 14 14
-11 -11 -11 -11 -10 -10 -10 -11 -11 -11 -10 -10 -10 -10 -10 -10 -10 -10 -9 -9 -9 -8 -7 -6 -5 -5 -5 -4 -3 -2 -1 1 3 4 6 7 8 10 11 12 13 13 13
-11 -11 -11 -11 -11 -11 -11 -11 -11 -11 -10 -10 -10 -10 -10 -10 -10 -9 -9 -9 -9 -8 -8 -7 -6 -6 -5 -5 -4 -2 -1 1 3 4 5 7 8 9 10 11 12 13 13
-11 -11 -11 -11 -11 -11 -11 -11 -11 -11 -10 -10 -10 -10 -10 -10 -10 -9 -9 -9 -9 -9 -8 -7 -7 -6 -6 -5 -4 -2 -1 0 2 3 5 6 7 8 10 11 12 12 13
-11 -12 -12 -11 -11 -11 -11 -11 -11 -11 -11 -11 -11 -10 -10 -10 -10 -10 -10 -9 -9 -9 -9 -8 -7 -7 -6 -5 -4 -3 -1 0 1 3 4 6 7 8 9 10 11 12 13
-11 -12 -12 -12 -11 -11 -11 -11 -11 -11 -11 -11 -11 -11 -11 -11 -11 -10 -10 -10 -10 -9 -9 -9 -8 -7 -6 -5 -4 -3 -1 -0 1 3 4 5 7 8 8 9 11 11 12
-11 -12 -12 -12 -12 -11 -11 -11 -11 -12 -12 -12 -12 -12 -12 -11 -11 -11 -10 -10 -10 -10 -9 -9 -9 -8 -7 -6 -5 -3 -2 -0 1 2 4 5 6 7 8 9 10 11 12
-11 -11 -12 -12 -11 -11 -11 -11 -11 -12 -12 -12 -12 -12 -12 -12 -11 -11 -11 -11 -11 -11 -10 -10 -9 -9 -8 -7 -6 -4 -3 -1 1 2 4 5 6 7 8 8 9 10 11
-10 -11 -11 -11 -11 -11 -11 -11 -11 -11 -12 -12 -12 -12 -12 -12 -11 -11 -11 -12 -11 -11 -11 -10 -10 -10 -9 -8 -7 -5 -4 -2 1 2 3 5 6 7 8 8 9 10 11
-10 -10 -11 -11 -11 -11 -11 -11 -11 -11 -12 -12 -12 -12 -12 -12 -12 -11 -12 -12 -12 -11 -11 -11 -11 -11 -10 -9 -8 -6 -4 -3 -1 1 3 4 5 6 8 8 8 9 10
-10 -10 -10 -11 -11 -11 -11 -11 -11 -11 -11 -12 -12 -12 -12 -12 -12 -12 -12 -12 -12 -12 -11 -11 -11 -11 -10 -9 -8 -7 -5 -3 -1 1 2 4 5 6 7 7 8 9 10
-9 -10 -10 -10 -10 -10 -10 -10 -11 -11 -11 -11 -12 -12 -13 -12 -12 -12 -12 -12 -12 -11 -11 -11 -11 -10 -10 -9 -8 -7 -5 -4 -2 0 2 3 5 6 6 7 7 8 9
-9 -9 -10 -10 -10 -10 -10 -10 -10 -10 -11 -11 -12 -12 -12 -12 -12 -13 -13 -13 -12 -12 -11 -10 -10 -10 -10 -9 -8 -7 -5 -4 -3 -0 1 3 4 5 6 6 7 8 9
Wind_Speed
16 18 18 18 19 19 19 20 21 22 22 21 21 22 22 23 23 22 20 24 27 28 28 27 27 26 26 26 26 26 27 26 26 27 31 33 34 34 35 35 34 32 31
17 18 18 18 19 19 19 21 22 21 20 19 20 22 23 23 22 22 22 23 26 26 26 26 25 25 25 26 25 26 27 27 26 27 29 33 35 35 36 36 36 34 33
18 19 18 18 19 20 21 20 21 20 18 19 19 21 20 22 22 23 23 21 21 22 23 23 22 23 23 24 25 25 26 27 27 27 27 31 34 36 37 37 37 36 34
19 19 17 18 19 20 20 18 17 16 17 17 18 17 18 19 22 23 22 20 18 17 17 18 18 19 20 22 23 24 25 27 28 27 28 29 33 36 37 38 38 38 36
19 19 17 18 20 19 18 17 15 16 18 18 18 18 18 18 19 20 19 18 17 15 14 14 15 17 18 20 21 22 23 25 27 27 28 28 31 35 37 38 39 39 38
19 18 17 19 19 17 15 16 18 18 17 18 18 19 18 20 18 17 16 13 12 12 11 12 13 13 16 18 20 21 23 24 25 26 28 28 29 34 37 38 39 40 39
18 18 17 18 18 15 16 19 18 20 18 17 17 18 19 18 17 12 10 10 10 9 10 12 12 13 13 17 18 19 21 23 24 26 27 28 29 32 36 38 39 40 40
18 17 18 18 18 16 18 19 19 17 17 15 16 17 14 15 5 10 10 10 10 8 10 12 13 14 14 13 15 18 20 21 23 25 26 27 29 30 35 37 38 40 41
18 18 19 19 20 18 16 19 19 20 17 17 14 12 10 10 15 11 12 9 9 10 12 12 13 14 15 14 14 15 18 20 21 23 25 26 28 29 33 36 38 39 40
18 18 19 20 20 18 18 18 18 17 18 16 15 13 13 14 12 10 10 12 15 14 14 12 13 14 14 13 13 16 18 19 20 20 22 24 26 27 32 36 38 38 38
17 18 20 20 20 18 18 19 19 18 15 15 15 14 14 13 14 14 16 15 13 13 13 13 13 12 13 13 12 13 16 19 19 19 19 21 23 25 28 33 37 37 37
15 18 21 20 20 19 19 19 18 19 16 16 15 13 13 12 12 12 14 16 15 14 15 13 12 11 10 11 13 14 18 19 18 18 17 17 18 21 22 27 33 37 38
13 17 21 20 20 21 21 20 16 16 16 16 15 13 12 13 13 13 14 15 16 15 16 12 10 10 10 9 10 15 18 19 18 17 17 15 14 14 17 19 27 34 38
13 19 21 21 21 21 20 18 14 14 13 14 14 14 12 12 12 12 13 13 14 14 14 13 11 10 7 8 13 18 15 17 18 17 17 14 11 11 13 13 17 25 31
15 19 20 19 20 20 19 16 12 14 13 12 12 12 11 10 10 10 10 10 11 13 14 14 11 10 10 11 14 14 14 17 19 18 17 14 11 10 10 12 13 16 20
16 17 18 18 18 18 17 15 14 14 14 13 11 12 11 10 10 9 9 9 9 11 13 13 14 14 14 13 15 15 15 19 20 18 16 14 11 9 9 11 13 16 18
16 16 17 16 16 16 16 14 15 15 14 14 14 14 14 14 12 11 10 9 9 10 12 14 13 14 16 15 13 12 13 12 11 15 15 14 11 9 9 9 13 16 18
15 16 17 16 16 15 15 14 14 14 14 14 15 15 15 14 16 13 12 12 10 11 12 15 14 13 15 14 13 13 11 10 10 12 14 13 11 9 9 9 12 15 18
15 16 16 16 16 15 14 13 12 12 13 13 14 15 15 16 17 14 14 13 11 11 11 12 13 12 11 10 12 11 11 9 9 10 12 12 12 10 9 9 11 15 18
14 15 15 15 15 14 13 10 10 11 11 12 13 14 14 15 17 16 14 15 13 13 12 11 11 10 10 11 9 8 8 7 8 7 8 9 9 10 9 9 10 14 18
13 14 15 15 15 13 13 10 6 10 11 12 13 14 15 18 20 16 14 14 14 12 11 11 10 10 9 10 9 8 9 9 8 4 5 6 8 8 7 7 9 12 17
13 13 14 15 16 13 20 19 9 9 11 12 13 14 15 16 20 20 19 18 16 14 13 11 9 11 11 11 10 10 9 6 4 3 4 5 7 7 6 5 6 11 15
13 13 13 14 15 17 22 22 16 10 10 11 13 14 14 15 19 15 16 18 16 16 15 12 11 11 12 12 12 11 10 8 7 7 5 4 5 7 5 5 8 9 13
12 12 13 14 15 16 22 23 20 11 10 11 12 13 15 16 17 19 15 15 14 12 13 10 10 11 11 11 11 11 11 11 10 9 6 3 2 4 4 5 8 9 11
12 12 13 14 15 16 21 24 21 11 9 10 11 12 14 16 22 24 17 16 16 14 14 16 16 14 14 14 12 8 8 6 4 3 2 2 1 1 3 4 6 9 10
12 12 13 13 14 15 20 23 22 10 8 9 10 11 14 18 22 22 16 15 17 16 15 14 13 12 10 10 11 7 6 6 4 3 4 4 2 0 2 2 3 5 6
Wind_Direction
331 328 325 323 322 320 320 320 317 316 313 311 308 307 304 302 299 295 292 291 292 292 292 290 288 285 284 283 281 280 278 275 265 250 237 228 222 214 208 204 199 196 195
329 326 322 321 320 319 318 315 312 312 310 309 306 305 302 299 295 293 291 290 288 288 288 287 285 283 281 280 278 278 275 274 267 256 243 232 224 217 211 206 201 198 197
331 327 322 321 320 320 317 313 311 310 309 308 305 304 301 298 294 292 289 287 285 284 282 282 282 282 281 280 278 276 274 272 269 260 250 237 227 220 214 208 203 200 198
333 329 324 321 321 319 316 314 311 311 310 308 306 304 301 297 292 290 287 282 279 278 279 279 282 285 285 284 282 279 275 270 268 262 254 243 231 223 216 211 206 202 200
333 329 323 320 321 318 315 313 312 311 309 308 305 303 300 296 291 287 282 278 273 272 276 281 287 288 287 286 284 283 281 276 269 263 256 248 236 224 218 213 209 204 201
332 328 322 321 321 317 315 314 312 308 306 306 305 303 301 294 283 275 274 273 270 272 280 292 295 290 287 288 286 286 283 279 274 267 259 251 242 228 220 215 211 207 203
329 326 322 320 319 315 313 311 309 308 307 307 307 308 305 290 274 270 274 278 275 280 293 297 296 296 293 288 287 285 285 282 278 272 264 253 245 232 221 216 212 209 206
326 323 320 318 315 313 310 309 309 306 305 306 308 310 313 309 290 321 296 283 283 297 298 298 298 295 293 290 285 287 288 284 280 274 267 257 247 236 224 217 213 211 208
322 320 318 317 313 312 308 308 307 303 304 303 298 298 301 305 324 301 295 291 305 305 300 299 294 296 293 287 285 284 288 289 285 277 268 260 249 238 226 218 215 212 209
321 320 319 318 314 311 308 307 305 301 299 297 296 290 281 285 290 300 301 306 303 298 298 296 297 295 290 286 282 284 289 293 290 283 272 261 251 240 229 218 215 212 209
323 324 324 321 318 315 311 308 305 300 296 292 292 291 287 283 273 274 288 296 300 298 297 296 293 290 288 285 284 286 297 300 297 292 282 268 255 243 232 221 214 212 210
325 328 328 325 322 319 315 311 306 300 295 290 288 285 283 280 280 281 286 294 297 299 298 294 289 285 286 286 285 296 303 301 298 301 293 278 265 249 238 226 215 211 211
326 328 330 327 325 323 320 317 311 305 299 294 287 284 279 274 274 275 278 285 292 296 295 292 287 288 286 285 294 303 302 298 298 303 301 287 278 259 242 232 220 213 211
321 323 326 326 327 328 328 327 321 318 308 299 293 288 283 278 275 271 272 281 291 296 298 298 301 293 286 298 298 302 295 294 296 302 301 291 283 267 244 228 220 215 211
321 322 325 327 328 330 333 334 331 331 326 318 309 303 296 293 288 284 279 277 283 296 301 305 308 308 307 299 295 294 291 290 293 295 293 286 279 271 252 223 207 209 210
323 324 327 328 330 331 334 336 336 340 338 338 334 329 322 315 311 307 300 294 290 290 293 299 305 304 306 299 294 291 286 286 283 282 281 279 271 265 257 229 205 198 202
323 325 327 327 329 330 331 333 336 338 338 339 341 338 335 332 332 330 323 313 305 301 297 300 303 306 307 304 300 292 283 277 273 268 272 273 261 255 250 235 207 197 193
324 326 327 327 328 329 330 330 332 336 337 338 338 338 338 336 335 335 333 330 322 312 304 304 307 310 309 309 305 297 285 272 267 265 264 267 256 243 242 240 215 198 189
323 326 328 327 326 326 325 324 326 330 334 336 336 337 336 335 335 336 335 334 328 322 313 306 308 312 312 317 313 303 290 276 272 262 257 254 245 233 229 236 222 201 185
323 326 327 325 324 324 321 311 317 327 335 338 336 335 333 333 333 337 337 337 334 326 322 316 314 317 319 325 324 319 312 303 286 268 256 243 232 220 217 227 223 204 188
322 323 323 323 324 325 322 319 311 331 342 342 339 336 333 336 337 340 338 339 337 332 328 323 320 323 328 334 333 324 315 307 283 272 268 235 216 204 202 215 223 207 192
322 322 321 320 321 322 324 336 338 335 341 342 340 338 336 337 339 341 339 342 340 336 334 330 322 323 324 326 326 322 320 317 290 339 307 245 210 198 188 193 206 202 190
320 319 317 319 319 320 324 329 335 332 334 337 338 338 339 340 343 341 344 343 338 337 336 331 319 319 318 322 321 318 318 312 297 311 314 258 207 198 181 183 191 198 189
316 314 316 319 320 320 324 326 328 322 323 330 333 336 338 339 341 350 347 341 337 335 335 329 320 317 315 316 313 307 302 299 284 268 257 266 210 189 168 169 183 190 185
313 312 315 319 319 320 322 322 323 316 316 323 328 333 336 338 344 352 349 342 339 341 340 335 331 324 323 323 324 319 311 305 287 281 274 280 290 176 157 165 176 182 179
312 315 316 319 319 317 317 319 323 317 318 323 329 334 336 341 347 351 350 345 344 343 339 335 333 332 330 328 332 325 310 299 295 305 347 335 334 47 128 135 159 166 168
Height
1542 1536 1531 1525 1520 1514 1509 1503 1498 1493 1488 1483 1479 1475 1471 1467 1464 1460 1457 1456 1454 1453 1452 1452 1453 1455 1457 1460 1462 1466 1470 1474 1478 1482 1486 1491 1496 1501 1507 1512 1517 1522 1527
1538 1532 1526 1521 1515 1510 1505 1499 1494 1488 1483 1478 1473 1468 1464 1460 1456 1454 1450 1448 1446 1445 1444 1444 1445 1446 1448 1451 1453 1457 1461 1465 1469 1474 1478 1484 1489 1494 1500 1506 1511 1516 1522
1535 1529 1523 1517 1512 1506 1500 1495 1489 1484 1478 1472 1467 1462 1457 1453 1449 1446 1443 1440 1438 1437 1437 1436 1437 1438 1439 1442 1444 1448 1451 1456 1461 1465 1470 1475 1481 1487 1493 1499 1505 1511 1516
1532 1525 1519 1514 1508 1502 1497 1491 1485 1479 1473 1467 1461 1455 1451 1446 1442 1439 1436 1434 1432 1430 1430 1430 1429 1429 1430 1432 1435 1438 1442 1447 1452 1456 1461 1467 1473 1479 1485 1491 1498 1504 1510
1529 1523 1516 1511 1505 1499 1493 1488 1482 1476 1469 1463 1456 1450 1444 1439 1435 1431 1429 1427 1426 1425 1424 1424 1422 1421 1422 1424 1426 1430 1433 1438 1443 1448 1453 1458 1464 1470 1477 1484 1491 1497 1504
1525 1519 1514 1508 1502 1496 1490 1484 1478 1472 1466 1459 1452 1445 1438 1432 1427 1425 1423 1422 1421 1420 1419 1418 1416 1415 1415 1416 1418 1420 1424 1429 1434 1439 1444 1449 1455 1462 1469 1476 1483 1490 1497
1523 1517 1511 1505 1499 1493 1486 1480 1474 1468 1462 1456 1448 1440 1432 1426 1422 1420 1419 1417 1417 1415 1414 1412 1411 1410 1409 1409 1410 1412 1416 1420 1425 1430 1435 1440 1446 1453 1460 1467 1474 1482 1489
1520 1514 1508 1502 1496 1489 1482 1477 1470 1464 1457 1453 1447 1438 1430 1424 1418 1416 1414 1413 1412 1411 1409 1407 1405 1404 1403 1403 1403 1405 1408 1412 1416 1421 1426 1432 1438 1444 1451 1458 1466 1473 1481
1517 1511 1505 1499 1492 1486 1479 1472 1466 1460 1453 1448 1444 1440 1433 1424 1419 1413 1412 1410 1408 1406 1404 1402 1400 1398 1397 1397 1397 1399 1401 1404 1408 1413 1418 1423 1429 1435 1441 1449 1457 1465 1473
1515 1509 1502 1496 1489 1482 1475 1468 1462 1455 1449 1443 1439 1436 1432 1427 1423 1414 1409 1407 1404 1402 1399 1397 1394 1393 1392 1391 1391 1393 1395 1397 1400 1404 1410 1415 1421 1426 1433 1439 1448 1456 1464
1512 1506 1499 1493 1486 1479 1471 1464 1457 1450 1445 1439 1435 1431 1427 1424 1420 1416 1408 1403 1400 1398 1395 1392 1389 1387 1386 1386 1386 1387 1388 1389 1392 1396 1401 1407 1412 1418 1424 1430 1438 1447 1456
1509 1503 1497 1490 1483 1476 1468 1460 1452 1446 1440 1435 1430 1426 1422 1419 1416 1412 1407 1401 1396 1393 1390 1387 1384 1383 1381 1381 1381 1381 1381 1383 1386 1389 1393 1399 1404 1410 1416 1422 1429 1438 1447
1506 1500 1494 1487 1480 1473 1466 1458 1450 1443 1436 1431 1426 1422 1418 1414 1411 1408 1404 1398 1393 1389 1385 1383 1381 1379 1377 1376 1375 1375 1376 1377 1380 1383 1386 1391 1397 1402 1408 1415 1421 1429 1437
1503 1498 1492 1485 1479 1472 1464 1457 1449 1442 1435 1429 1423 1418 1414 1410 1407 1404 1401 1397 1391 1386 1382 1379 1377 1375 1373 1372 1370 1370 1371 1372 1374 1376 1380 1384 1390 1395 1401 1408 1414 1421 1429
1501 1495 1489 1483 1477 1470 1463 1456 1449 1442 1435 1429 1422 1417 1412 1408 1404 1400 1397 1394 1391 1385 1379 1375 1374 1372 1370 1368 1366 1365 1365 1366 1368 1371 1374 1378 1383 1389 1394 1401 1407 1413 1421
1499 1493 1487 1481 1475 1469 1462 1456 1449 1442 1436 1430 1423 1417 1412 1407 1402 1398 1394 1391 1387 1384 1378 1372 1370 1367 1365 1363 1361 1360 1360 1361 1363 1365 1369 1373 1378 1383 1388 1394 1400 1407 1413
1496 1490 1484 1478 1473 1467 1461 1455 1449 1442 1436 1430 1424 1418 1412 1407 1402 1397 1392 1388 1384 1381 1376 1369 1366 1363 1360 1358 1356 1356 1355 1356 1358 1360 1364 1368 1372 1377 1382 1387 1394 1400 1407
1494 1488 1482 1476 1470 1465 1459 1453 1447 1441 1435 1429 1423 1417 1411 1406 1401 1396 1391 1386 1382 1378 1374 1367 1362 1359 1356 1353 1351 1351 1351 1352 1353 1356 1359 1362 1367 1372 1377 1382 1388 1394 1401
1491 1485 1479 1473 1468 1462 1457 1451 1446 1440 1434 1427 1421 1415 1410 1405 1400 1395 1390 1384 1379 1375 1370 1365 1360 1356 1352 1350 1348 1347 1347 1348 1349 1351 1354 1357 1362 1367 1372 1376 1382 1389 1396
1488 1482 1476 1471 1465 1460 1454 1449 1444 1438 1432 1426 1420 1414 1409 1404 1399 1393 1388 1383 1377 1372 1368 1363 1358 1354 1350 1347 1345 1344 1344 1344 1345 1347 1350 1353 1357 1363 1367 1372 1378 1383 1390
1486 1480 1474 1468 1463 1457 1452 1447 1442 1437 1431 1425 1419 1413 1408 1403 1398 1393 1387 1381 1375 1370 1365 1361 1357 1352 1349 1345 1343 1341 1341 1341 1342 1344 1346 1349 1353 1358 1363 1367 1372 1378 1385
1484 1478 1472 1466 1460 1455 1450 1446 1441 1435 1429 1423 1417 1412 1407 1401 1396 1390 1384 1379 1374 1369 1364 1359 1355 1351 1348 1345 1342 1340 1339 1339 1340 1342 1343 1346 1349 1353 1359 1364 1368 1375 1381
1482 1476 1470 1464 1459 1454 1448 1444 1439 1433 1428 1422 1417 1411 1406 1400 1394 1388 1382 1376 1371 1366 1362 1358 1353 1349 1346 1343 1340 1338 1337 1337 1337 1338 1340 1342 1346 1350 1355 1360 1366 1371 1378
1480 1474 1468 1463 1458 1452 1447 1441 1437 1431 1426 1421 1416 1410 1405 1399 1393 1387 1380 1374 1369 1364 1359 1354 1350 1346 1343 1340 1338 1336 1335 1335 1334 1336 1338 1340 1343 1347 1352 1358 1363 1369 1375
1478 1473 1467 1462 1456 1451 1445 1439 1434 1429 1424 1419 1414 1409 1404 1398 1392 1386 1379 1373 1367 1361 1356 1351 1347 1343 1339 1336 1335 1334 1333 1334 1334 1334 1336 1338 1341 1345 1350 1355 1361 1366 1372
1477 1471 1466 1461 1455 1450 1443 1437 1432 1427 1421 1417 1412 1408 1402 1397 1391 1385 1378 1372 1366 1359 1353 1348 1344 1340 1337 1334 1332 1331 1331 1332 1332 1333 1335 1337 1339 1344 1349 1353 1358 1364 1369